Location: Forst
(46.9333°N, 15.4333°E)
Time: 18:22:37
(UTC+00:00)

STPSAT 2 (USA 217) - Visible Passes

Search period start: 16 April 2021 00:00
Search period end: 26 April 2021 00:00
Orbit: 624 x 644 km, 72.0° (Epoch: 15 April)

Date Brightness Start Highest point End Pass type
(mag) Time Alt. Az. Time Alt. Az. Time Alt. Az.
16 Apr 5.9 20:42:10 10° N 20:45:52 30° NE 20:45:52 30° NE visible
16 Apr 6.8 22:21:32 10° NW 22:23:19 21° WNW 22:23:19 21° WNW visible
17 Apr 7.0 19:27:05 10° NNE 19:28:04 11° NE 19:29:03 10° NE visible
17 Apr 5.3 21:03:59 10° NNW 21:07:37 50° NNE 21:07:37 50° NNE visible
17 Apr 7.3 22:44:33 10° WNW 22:45:04 12° WNW 22:45:04 12° WNW visible
18 Apr 6.4 19:47:31 10° N 19:50:43 18° NE 19:51:57 17° ENE visible
18 Apr 5.5 21:26:05 10° NNW 21:29:24 46° NW 21:29:24 46° NW visible
19 Apr 5.6 20:09:03 10° N 20:13:10 33° NE 20:13:45 32° ENE visible
19 Apr 6.4 21:48:32 10° NW 21:51:12 26° WNW 21:51:12 26° WNW visible
20 Apr 6.9 18:53:32 10° NNE 18:55:05 11° NE 18:56:38 10° ENE visible
20 Apr 4.6 20:30:54 10° NNW 20:35:25 66° ENE 20:35:35 66° ENE visible
20 Apr 7.1 22:11:44 10° WNW 22:13:03 14° W 22:13:03 14° W visible
21 Apr 6.3 19:14:20 10° N 19:17:42 20° NE 19:19:59 14° E visible
21 Apr 4.9 20:53:02 10° NNW 20:57:27 59° WSW 20:57:27 59° WSW visible
22 Apr 5.5 19:35:55 10° N 19:40:08 36° ENE 19:41:53 26° E visible
22 Apr 6.1 21:15:33 10° NW 21:19:21 28° WSW 21:19:21 28° WSW visible
23 Apr 4.6 19:57:49 10° NNW 20:02:21 74° ENE 20:03:49 42° SE visible
23 Apr 7.0 21:38:58 10° WNW 21:41:09 13° W 21:41:17 13° W visible
24 Apr 6.2 18:41:10 10° N 18:44:41 22° NE 18:48:13 10° ESE visible
24 Apr 5.1 20:20:00 10° NW 20:24:25 53° WSW 20:25:47 38° SSW visible
25 Apr 5.3 19:02:48 10° NNW 19:07:05 40° ENE 19:10:19 16° ESE visible
25 Apr 6.3 20:42:35 10° NW 20:46:18 25° WSW 20:47:47 21° SW visible
